[[{"header":{"parameterUnit":"m.s-1","parameterCategory":1,"la1":30.2991,"la2":30.254,"lo1":-89.0895,"lo2":-89.0444,"dy":0.0017,"dx":0.0017,"nx":28,"ny":28,"refTime":"2024-04-09T09:00:00:Z","depth":0,"parameterNumber":2,"parameterNumberName":"U-component_of_WINDS"},"data":[0,0,0,0,0,0,0,0,0,0,0,0,0,0,0,0,0,0,0,0,0,0,0,0,0,0,0,0,0,0,0,0,0,0,0,0,0,0,0,0,0,0,0,0,0,0,0,0,0,0,0,0,0,0,0,0,0,0,-4.867,-4.8673,0,-4.894,-4.8943,-4.8946,-4.9055,-4.9054,-4.9053,-4.9053,-4.9327,-4.9335,-4.9343,0,0,0,0,0,0,0,0,0,0,0,0,0,-4.8249,-4.8256,-4.867,-4.8673,-4.8677,-4.8939,-4.8943,-4.8947,-4.9055,-4.9054,-4.9053,-4.9053,-4.9325,-4.9334,-4.9343,0,0,0,0,0,0,0,0,0,0,0,0,0,-4.8466,-4.8259,-4.8669,-4.8762,-4.8774,-4.8938,-4.8943,-4.8947,-4.9055,-4.9054,-4.9053,-4.9052,-4.9321,-4.9333,-4.9345,-4.9436,0,0,-4.9381,-4.9386,0,0,0,0,0,0,0,0,-4.8454,-4.8482,-4.8745,-4.8756,-4.8769,-4.8963,-4.8895,-4.9111,-4.9055,-4.8948,-4.9053,-4.9052,-4.9207,-4.9228,-4.928,-4.9449,-4.9461,-4.9382,-4.9389,-4.9394,-4.9397,0,0,0,0,0,0,0,-4.8439,-4.8471,-4.8777,-4.8749,-4.8764,-4.8791,-4.8821,-4.8937,-4.9079,-4.8957,-4.8966,-4.8996,-4.9213,-4.9269,-4.9287,-4.9465,-4.9381,-4.9392,-4.9399,-4.9404,-4.9724,-4.9725,0,0,0,0,0,0,-4.8408,-4.8457,-4.8768,-4.8785,-4.8606,-4.8799,-4.8832,-4.8901,-4.9078,-4.9104,-4.8997,-4.9,-4.9249,-4.9274,-4.9298,-4.9417,-4.9394,-4.9405,-4.9412,-4.9723,-4.9724,-4.9726,0,0,0,0,0,0,-4.8399,-4.8435,-4.8757,-4.8624,-4.8667,-4.8807,-4.8884,-4.8907,-4.8963,-4.9108,-4.9134,-4.9028,-4.9249,-4.9281,-4.9402,-4.9428,-4.941,-4.9421,-4.9721,-4.9723,-4.9725,-4.9656,0,0,0,0,0,0,-4.8386,-4.8431,-4.8467,-4.8624,-4.8673,-4.8856,-4.8886,-4.8913,-4.8983,-4.8991,-4.9144,-4.9168,-4.9251,-4.9383,-4.9413,-4.9444,-4.943,-4.9719,-4.9722,-4.9725,-4.9657,-4.9656,-4.9655,0,0,0,0,0,-4.8371,-4.8437,-4.8468,-4.8505,-4.8722,-4.8858,-4.8886,-4.898,-4.8985,-4.9023,-4.9116,-4.9164,-4.9421,-4.9395,-4.9429,-4.9464,-4.9718,-4.9721,-4.9724,-4.9657,-4.9656,-4.9655,0,0,0,0,0,0,-4.8279,-4.8459,-4.8496,-4.8614,-4.872,-4.8876,-4.8926,-4.8976,-4.9082,-4.9084,-4.9196,-4.9229,-4.934,-4.9415,-4.9383,-4.9563,-4.9573,-4.9583,-4.951,-4.951,-4.9509,-4.9489,-4.944,0,0,0,0,0,-4.8272,-4.8368,-4.852,-4.861,-4.8661,-4.8784,-4.8847,-4.891,-4.9024,-4.9069,-4.9171,-4.9279,-4.9385,-4.9452,-4.9557,-4.9669,-4.9704,-4.971,-4.9709,-4.9708,-4.9715,-4.978,-4.9785,-4.9736,-4.9736,-4.9736,0,0,-4.826,-4.837,-4.8423,-4.8594,-4.8683,-4.878,-4.8821,-4.8921,-4.8994,-4.9084,-4.9205,-4.9283,-4.9412,-4.9528,-4.9585,-4.9594,-4.9736,-4.9712,-4.9709,-4.9718,-4.9784,-4.9788,-4.9792,-4.9739,-4.9738,-4.9738,0,0,-4.8286,-4.8379,-4.8464,-4.8553,-4.8688,-4.877,-4.879,-4.894,-4.8996,-4.9118,-4.9189,-4.9277,-4.9456,-4.9545,-4.9613,-4.9675,-4.9722,-4.9706,-4.97,-4.9763,-4.9767,-4.9771,-4.9793,-4.9799,-4.9713,-4.9713,-4.9712,0,-4.8253,-4.8401,-4.8501,-4.8599,-4.8672,-4.8759,-4.8846,-4.8928,-4.909,-4.9138,-4.9146,-4.9374,-4.9466,-4.9605,-4.962,-4.9673,-4.97,-4.9688,-4.9758,-4.9763,-4.9768,-4.979,-4.9798,-4.971,-4.971,-4.971,-4.9711,0,-4.8354,-4.8456,-4.8509,-4.8664,-4.8743,-4.8835,-4.8949,-4.9017,-4.9074,-4.9155,-4.9279,-4.9393,-4.9523,-4.9561,-4.9617,-4.9709,-4.971,-4.9737,-4.9749,-4.9768,-4.9791,-4.98,-4.9705,-4.9707,-4.9707,-4.9708,0,0,-4.8329,-4.8539,-4.8557,-4.8629,-4.8785,-4.8866,-4.8961,-4.9089,-4.9146,-4.9255,-4.9338,-4.9488,-4.9514,-4.9592,-4.9659,-4.9714,-4.9756,-4.9735,-4.9739,-4.9734,-4.9864,-4.9842,-4.985,-4.9789,-4.9791,-4.9793,-4.9853,0,-4.8376,-4.8551,-4.8644,-4.878,-4.8876,-4.8961,-4.9045,-4.9149,-4.9228,-4.9321,-4.9408,-4.9512,-4.9539,-4.9586,-4.9644,-4.9738,-4.9783,-4.9735,-4.9867,-4.987,-4.9831,-4.9863,-4.984,-4.9891,-4.9863,-4.9864,-4.9865,0,-4.8454,-4.8563,-4.8708,-4.8854,-4.8898,-4.8971,-4.9096,-4.9184,-4.9305,-4.9358,-4.9445,-4.9512,-4.9617,-4.9621,-4.9767,-4.9732,-4.9792,-4.9846,-4.9851,-4.9866,-4.9868,-4.9878,-4.991,-4.9917,-4.988,-4.9879,-4.9878,0,-4.842,-4.8603,-4.8714,-4.8773,-4.8946,-4.8996,-4.907,-4.9191,-4.9262,-4.9371,-4.9419,-4.9539,-4.9604,-4.9695,-4.9793,-4.9787,-4.9929,-4.9942,-4.9976,-4.9973,-5.0001,-4.9998,-5.0042,-5.004,-5.004,-5.004,-5.004,0,-4.8463,-4.8548,-4.8702,-4.8769,-4.8868,-4.8975,-4.907,-4.9151,-4.9257,-4.9343,-4.9424,-4.9502,-4.9626,-4.972,-4.9797,-4.9906,-4.9935,-4.9981,-5.0,-4.9974,-4.9967,-5.0013,-5.0012,-5.0042,-5.0041,-5.0041,-5.0041,0,-4.8441,-4.8548,-4.8674,-4.8828,-4.8869,-4.8935,-4.9067,-4.9136,-4.922,-4.9327,-4.9358,-4.9488,-4.9603,-4.971,-4.9863,-4.9915,-5.0025,-5.005,-4.9983,-4.9994,-5.0022,-5.0018,-5.0097,-5.0113,-5.0099,-5.0099,-5.0099,0,-4.8461,-4.8529,-4.8691,-4.8754,-4.8827,-4.8928,-4.9001,-4.911,-4.9183,-4.9326,-4.9378,-4.95,-4.9602,-4.9782,-4.989,-5.0008,-5.0036,-5.0056,-5.0054,-5.0025,-5.0036,-5.0031,-5.0038,-5.0054,-5.0053,-5.0053,-5.0053,0,-4.8485,-4.8535,-4.8637,-4.8759,-4.8844,-4.8945,-4.9049,-4.9096,-4.9224,-4.9302,-4.9421,-4.95,-4.9657,-4.9776,-4.9907,-4.9984,-5.0039,-5.0053,-5.0067,-5.004,-4.9999,-5.0021,-4.9979,-5.005,-5.005,-5.0051,-5.0051,-5.0051,-4.8486,-4.855,-4.8674,-4.8786,-4.8876,-4.8971,-4.9044,-4.9136,-4.9237,-4.9374,-4.9432,-4.9552,-4.9673,-4.9853,-4.993,-5.0026,-5.0038,-5.0058,-5.0063,-5.0066,-5.0061,-4.9984,-5.005,-5.005,-5.005,-5.005,-5.0051,0,-4.8514,-4.8598,-4.87,-4.8842,-4.8931,-4.8977,-4.9094,-4.9164,-4.9269,-4.9377,-4.9477,-4.9614,-4.973,-4.9848,-4.9971,-5.0025,-5.0054,-5.0053,-5.005,-5.0067,-5.0043,-5.0019,-5.0028,-5.0028,-5.0028,-5.0028,-5.0028,-5.0028,-4.8538,-4.865,-4.8714,-4.8871,-4.8956,-4.9074,-4.9137,-4.9226,-4.9312,-4.9461,-4.9559,-4.9635,-4.9748,-4.9879,-4.9988,-5.002,-5.0061,-5.0054,-5.0092,-5.0068,-5.0069,-5.0069,-5.0047,-5.0062,-5.0062,-5.0109,-5.0109,-5.0109]},{"header":{"parameterUnit":"m.s-1","parameterCategory":1,"la1":30.2991,"la2":30.254,"lo1":-89.0895,"lo2":-89.0444,"dy":0.0017,"dx":0.0017,"nx":28,"ny":28,"refTime":"2024-04-09T09:00:00:Z","depth":0,"parameterNumber":3,"parameterNumberName":"V-component_of_WINDS"},"data":[0,0,0,0,0,0,0,0,0,0,0,0,0,0,0,0,0,0,0,0,0,0,0,0,0,0,0,0,0,0,0,0,0,0,0,0,0,0,0,0,0,0,0,0,0,0,0,0,0,0,0,0,0,0,0,0,0,0,8.9258,8.9259,0,8.9356,8.9358,8.9359,8.9303,8.93,8.9298,8.9295,8.9388,8.9393,8.9398,0,0,0,0,0,0,0,0,0,0,0,0,0,8.9016,8.9021,8.9258,8.9259,8.926,8.9356,8.9358,8.9359,8.9303,8.93,8.9297,8.9294,8.9387,8.9393,8.9399,0,0,0,0,0,0,0,0,0,0,0,0,0,8.9118,8.9022,8.9258,8.9245,8.9244,8.9356,8.9358,8.9359,8.9304,8.93,8.9296,8.9292,8.9385,8.9392,8.94,8.9528,0,0,8.9423,8.9426,0,0,0,0,0,0,0,0,8.9113,8.9127,8.9245,8.9246,8.9246,8.9313,8.9306,8.9415,8.9305,8.9281,8.9295,8.929,8.9366,8.9375,8.9402,8.9532,8.9536,8.9423,8.9428,8.9431,8.9433,0,0,0,0,0,0,0,8.9106,8.9123,8.9297,8.9247,8.9247,8.9232,8.9242,8.9327,8.9345,8.9283,8.9279,8.9292,8.9366,8.9395,8.9404,8.9537,8.9423,8.943,8.9434,8.9437,8.9779,8.9783,0,0,0,0,0,0,8.91,8.9117,8.9293,8.93,8.9168,8.9239,8.9251,8.9296,8.9344,8.9348,8.9295,8.9289,8.9384,8.9395,8.9407,8.9562,8.9431,8.9438,8.9442,8.9774,8.978,8.9785,0,0,0,0,0,0,8.9095,8.9117,8.929,8.9208,8.9228,8.9248,8.9299,8.93,8.9329,8.9354,8.9356,8.9323,8.9382,8.9396,8.9499,8.9564,8.9441,8.9448,8.9769,8.9776,8.9782,8.9871,0,0,0,0,0,0,8.9089,8.9115,8.9165,8.9209,8.9233,8.9382,8.9303,8.9305,8.9343,8.9336,8.938,8.9383,8.9379,8.9488,8.9507,8.9572,8.9454,8.9763,8.9772,8.978,8.9863,8.988,8.9896,0,0,0,0,0,8.908,8.9184,8.9168,8.919,8.9297,8.9386,8.9399,8.9395,8.9349,8.9399,8.9415,8.9382,8.9554,8.9499,8.9519,8.9588,8.9759,8.9769,8.9779,8.9855,8.9877,8.9895,0,0,0,0,0,0,8.9144,8.919,8.9172,8.9294,8.9337,8.9376,8.9439,8.9418,8.9472,8.9463,8.9453,8.9463,8.9571,8.9589,8.9527,8.9716,8.9649,8.9664,8.97,8.9721,8.9737,8.973,8.946,0,0,0,0,0,8.9173,8.9244,8.9279,8.9383,8.9406,8.9419,8.9458,8.9451,8.9494,8.9511,8.9534,8.9575,8.9638,8.968,8.974,8.9865,8.9874,8.9922,8.9939,8.9952,8.9965,9.0034,9.0056,8.9818,8.9818,8.9818,0,0,8.9232,8.9266,8.9311,8.9397,8.9429,8.9502,8.9434,8.9513,8.9566,8.9522,8.9622,8.964,8.9685,8.98,8.9852,8.9819,9.0033,8.9965,8.9976,8.9982,9.0047,9.007,9.009,8.9825,8.9824,8.9823,0,0,8.9378,8.9411,8.9502,8.9537,8.9588,8.9597,8.9619,8.9662,8.9674,8.9774,8.9743,8.9804,8.9914,8.9948,8.9979,9.014,9.0113,9.016,9.0246,9.0313,9.0332,9.0348,9.0407,9.0428,9.0172,9.0173,9.0173,0,8.9445,8.9555,8.9551,8.9634,8.9673,8.9639,8.9731,8.9764,8.9831,8.9857,8.982,8.9959,8.9986,9.011,9.0149,9.0175,9.02,9.0155,9.033,9.0346,9.0362,9.0418,9.044,9.0178,9.0177,9.0177,9.0176,0,8.9635,8.9712,8.9779,8.9849,8.9895,8.9981,8.9989,9.0036,9.0026,9.0038,9.0141,9.0173,9.024,9.0268,9.0257,9.0391,9.0369,9.0331,9.0264,9.039,9.0443,9.0464,9.0186,9.0184,9.0182,9.0181,0,0,8.9823,8.9892,8.9916,8.9948,9.0003,9.0061,9.0146,9.0214,9.0255,9.0302,9.0373,9.0468,9.0434,9.047,9.0462,9.0522,9.0649,9.0477,9.0477,9.0509,9.0799,9.0828,9.0853,9.0631,9.0635,9.0638,9.0796,0,8.9973,9.0126,9.0125,9.0265,9.0336,9.0306,9.038,9.0421,9.0434,9.0495,9.0508,9.0577,9.0526,9.0548,9.0605,9.0622,9.0707,9.061,9.0696,9.0699,9.0687,9.088,9.0911,9.1058,9.0816,9.082,9.0822,0,9.0169,9.0227,9.0375,9.0422,9.0451,9.0518,9.0582,9.064,9.0686,9.0691,9.0733,9.0718,9.0803,9.0733,9.085,9.0784,9.0819,9.0833,9.0838,9.0846,9.0769,9.0895,9.1105,9.1128,9.0854,9.0851,9.0849,0,9.0294,9.0408,9.0512,9.054,9.0596,9.0644,9.067,9.0711,9.0753,9.0807,9.0834,9.0896,9.0931,9.0979,9.098,9.0929,9.1099,9.1029,9.1105,9.1106,9.1143,9.1141,9.1363,9.1164,9.1163,9.1163,9.1163,0,9.0463,9.0554,9.0569,9.0633,9.0735,9.0733,9.0833,9.0854,9.0892,9.0958,9.0934,9.0996,9.0993,9.1056,9.1057,9.1154,9.1169,9.1176,9.1175,9.1179,9.1179,9.1202,9.1192,9.1169,9.1168,9.1166,9.1165,0,9.0619,9.0633,9.0744,9.079,9.0803,9.0877,9.0914,9.0975,9.0987,9.1071,9.109,9.1109,9.1182,9.1188,9.1271,9.1271,9.139,9.1377,9.1376,9.1374,9.1451,9.1445,9.1697,9.1731,9.1509,9.1511,9.1513,0,9.0727,9.0797,9.0852,9.0896,9.0925,9.0996,9.104,9.104,9.1086,9.1144,9.1197,9.1268,9.1326,9.1443,9.1462,9.1526,9.1516,9.16,9.1525,9.1527,9.1519,9.1515,9.1523,9.1615,9.1617,9.1619,9.1621,0,9.0917,9.0921,9.0986,9.1054,9.1107,9.116,9.1209,9.1246,9.1252,9.1305,9.1381,9.1425,9.1512,9.1583,9.1646,9.167,9.1647,9.1644,9.1666,9.1671,9.1668,9.1672,9.1417,9.1639,9.1637,9.1635,9.1634,9.1634,9.1053,9.1115,9.1164,9.1238,9.1276,9.1323,9.1383,9.1404,9.1468,9.1541,9.1536,9.1621,9.1664,9.1747,9.1776,9.1841,9.1812,9.1843,9.1851,9.1859,9.1868,9.1657,9.1852,9.1851,9.1851,9.185,9.185,0,9.1243,9.1274,9.1342,9.1414,9.1471,9.1447,9.1501,9.155,9.1626,9.167,9.1728,9.1815,9.1885,9.191,9.1977,9.2024,9.2016,9.2042,9.2039,9.2045,9.1888,9.1864,9.2048,9.2048,9.2048,9.2048,9.2048,9.2048,9.1349,9.1454,9.1464,9.1587,9.1616,9.1701,9.1734,9.1777,9.1813,9.1913,9.1972,9.1989,9.2026,9.2096,9.2158,9.2164,9.219,9.2221,9.2223,9.2076,9.2056,9.2037,9.2014,9.2227,9.2227,9.2374,9.2375,9.2377]}]]